QPF
0.00 0.00 0.00 0.00 0.00 0.00 0.00 0.00 0.00 0.00 0.00 0.00 0.00 0.00 0.00 0.00 0.00 0.00 0.00 0.00 0.00 0.00 0.00 0.00 0.00 0.00 0.00 0.00 0.00 0.00 0.00 0.01
0.00 0.00 0.00 0.00 0.00 0.00 0.00 0.00 0.00 0.00 0.00 0.00 0.00 0.00 0.00 0.00 0.00 0.00 0.00 0.00 0.00 0.00 0.00 0.00 0.00 0.00 0.00 0.00 0.00 0.00 0.00 0.00
0.00 0.00 0.00 0.00 0.00 0.00 0.00 0.00 0.00 0.00 0.00 0.00 0.00 0.00 0.00 0.00 0.00 0.00 0.00 0.00 0.00 0.00 0.00 0.00 0.00 0.00 0.00 0.00 0.00 0.00 0.00 0.00
0.00 0.00 0.00 0.00 0.00 0.00 0.00 0.00 0.00 0.00 0.00 0.00 0.00 0.00 0.00 0.00 0.00 0.00 0.00 0.00 0.00 0.00 0.00 0.00 0.00 0.00 0.00 0.00 0.00 0.01 0.01 0.00
0.00 0.00 0.00 0.00 0.00 0.00 0.00 0.00 0.00 0.00 0.00 0.00 0.00 0.00 0.01 0.00 0.00 0.00 0.00 0.00 0.00 0.00 0.00 0.00 0.00 0.00 0.00 0.00 0.00 0.00 0.00 0.00
0.00 0.00 0.00 0.00 0.00 0.00 0.00 0.00 0.00 0.00 0.00 0.00 0.00 0.00 0.01 0.02 0.01 0.00 0.00 0.00 0.00 0.00 0.00 0.00 0.00 0.00 0.01 0.01 0.00 0.00 0.02 0.02
0.00 0.00 0.00 0.00 0.00 0.00 0.00 0.00 0.00 0.00 0.00 0.00 0.00 0.00 0.01 0.01 0.02 0.01 0.00 0.00 0.00 0.00 0.00 0.00 0.00 0.00 0.00 0.00 0.00 0.00 0.01 0.03
0.00 0.00 0.00 0.00 0.02 0.00 0.00 0.00 0.00 0.00 0.00 0.00 0.00 0.02 0.02 0.02 0.02 0.00 0.00 0.00 0.00 0.00 0.00 0.00 0.00 0.00 0.00 0.00 0.00 0.00 0.00 0.00
0.00 0.00 0.00 0.00 0.01 0.03 0.00 0.00 0.00 0.00 0.00 0.00 0.00 0.02 0.04 0.01 0.02 0.00 0.00 0.00 0.00 0.00 0.00 0.00 0.00 0.00 0.00 0.00 0.00 0.00 0.00 0.00
0.00 0.00 0.00 0.00 0.00 0.03 0.00 0.00 0.00 0.00 0.00 0.00 0.00 0.01 0.05 0.01 0.01 0.01 0.03 0.00 0.00 0.00 0.00 0.00 0.00 0.00 0.00 0.00 0.00 0.00 0.00 0.00
0.00 0.00 0.00 0.00 0.03 0.02 0.04 0.01 0.00 0.00 0.00 0.00 0.00 0.00 0.03 0.03 0.01 0.01 0.07 0.03 0.00 0.00 0.00 0.00 0.00 0.00 0.00 0.00 0.00 0.00 0.00 0.00
0.00 0.00 0.00 0.00 0.02 0.06 0.07 0.03 0.01 0.02 0.00 0.00 0.00 0.00 0.00 0.03 0.02 0.02 0.03 0.02 0.00 0.00 0.00 0.01 0.00 0.00 0.00 0.00 0.00 0.00 0.00 0.00
0.00 0.00 0.00 0.00 0.02 0.07 0.09 0.04 0.06 0.06 0.00 0.00 0.00 0.00 0.00 0.00 0.02 0.02 0.01 0.01 0.01 0.00 0.01 0.03 0.01 0.00 0.00 0.00 0.00 0.00 0.00 0.00
0.00 0.00 0.00 0.00 0.00 0.02 0.06 0.10 0.12 0.06 0.03 0.00 0.00 0.00 0.00 0.00 0.00 0.00 0.00 0.00 0.02 0.01 0.00 0.00 0.02 0.01 0.01 0.01 0.01 0.01 0.00 0.00
0.00 0.00 0.00 0.00 0.00 0.01 0.12 0.21 0.25 0.21 0.10 0.00 0.00 0.00 0.00 0.00 0.00 0.00 0.00 0.00 0.00 0.02 0.00 0.00 0.00 0.01 0.01 0.01 0.00 0.00 0.01 0.01
0.00 0.00 0.00 0.00 0.00 0.00 0.08 0.11 0.09 0.03 0.04 0.01 0.00 0.00 0.00 0.00 0.00 0.00 0.00 0.00 0.00 0.01 0.00 0.00 0.01 0.01 0.04 0.03 0.01 0.09 0.07 0.05
0.00 0.00 0.00 0.00 0.00 0.00 0.04 0.11 0.11 0.11 0.13 0.11 0.01 0.00 0.00 0.00 0.00 0.00 0.00 0.00 0.00 0.00 0.00 0.00 0.01 0.05 0.04 0.02 0.04 0.11 0.13 0.11
0.00 0.00 0.00 0.00 0.00 0.00 0.02 0.08 0.15 0.20 0.15 0.11 0.06 0.00 0.00 0.00 0.00 0.00 0.00 0.00 0.00 0.00 0.00 0.00 0.01 0.03 0.07 0.05 0.04 0.02 0.09 0.18
0.00 0.00 0.00 0.00 0.00 0.00 0.03 0.08 0.15 0.17 0.12 0.07 0.03 0.00 0.00 0.00 0.00 0.00 0.00 0.00 0.00 0.01 0.00 0.00 0.00 0.00 0.00 0.02 0.04 0.04 0.07 0.10
0.00 0.00 0.00 0.00 0.00 0.00 0.02 0.08 0.16 0.20 0.14 0.06 0.02 0.00 0.00 0.00 0.00 0.00 0.00 0.01 0.02 0.02 0.02 0.01 0.00 0.00 0.00 0.01 0.03 0.02 0.07 0.10
MSLP
1008.43 1009.05 1009.57 1010.04 1010.22 1010.38 1010.66 1011.00 1011.20 1011.48 1011.80 1012.22 1012.71 1013.25 1013.58 1014.00 1014.31 1014.65 1015.02 1015.39 1015.67 1015.91 1016.17 1016.37 1016.58 1016.73 1016.69 1016.50 1016.36 1016.32 1016.48 1016.44
1008.40 1008.65 1009.40 1009.96 1010.47 1010.67 1010.78 1011.03 1011.36 1011.56 1011.80 1012.20 1012.67 1013.28 1013.81 1014.11 1014.40 1014.68 1015.00 1015.32 1015.75 1016.02 1016.25 1016.45 1016.66 1016.74 1016.82 1016.80 1016.53 1016.52 1016.32 1016.53
1008.03 1008.38 1008.93 1009.55 1010.03 1010.57 1010.93 1011.05 1011.24 1011.63 1012.10 1012.36 1012.82 1013.12 1013.66 1014.20 1014.30 1014.59 1015.03 1015.31 1015.70 1016.07 1016.29 1016.59 1016.70 1016.85 1016.93 1016.96 1016.81 1016.53 1016.36 1016.98
1007.12 1007.96 1008.57 1009.06 1009.31 1009.87 1010.63 1011.03 1011.22 1011.40 1011.90 1012.45 1012.61 1012.83 1013.16 1013.53 1014.06 1014.47 1014.77 1015.20 1015.62 1015.94 1016.25 1016.56 1016.57 1016.61 1016.90 1016.98 1016.93 1016.57 1016.72 1016.90
1006.41 1007.04 1007.79 1008.45 1008.84 1009.05 1009.84 1010.30 1010.66 1010.98 1011.30 1011.86 1012.18 1012.41 1012.78 1013.17 1013.68 1014.33 1014.69 1015.13 1015.51 1015.94 1016.31 1016.36 1016.21 1016.06 1016.30 1016.57 1016.51 1016.45 1016.65 1016.60
1006.20 1006.16 1006.90 1007.56 1007.89 1008.36 1008.83 1009.55 1010.07 1010.34 1010.70 1011.18 1011.72 1011.97 1012.33 1012.79 1013.26 1013.74 1014.19 1014.75 1014.99 1015.40 1015.74 1015.86 1015.75 1015.74 1015.96 1016.09 1016.11 1016.06 1016.60 1017.13
1006.63 1006.71 1006.22 1006.81 1007.44 1007.73 1008.01 1008.56 1009.17 1009.60 1010.01 1010.52 1011.05 1011.42 1011.82 1012.22 1012.81 1013.18 1013.50 1014.01 1014.28 1014.75 1014.92 1015.27 1015.33 1015.30 1015.57 1015.71 1015.79 1015.82 1016.05 1016.87
1007.00 1006.74 1006.85 1006.22 1006.89 1007.31 1007.50 1007.82 1008.16 1008.72 1009.13 1009.66 1010.36 1010.81 1011.44 1011.98 1012.43 1012.85 1013.01 1013.21 1013.54 1013.89 1014.19 1014.60 1014.80 1014.92 1015.13 1015.35 1015.53 1015.71 1015.83 1016.14
1007.17 1006.70 1006.55 1006.30 1006.16 1006.72 1007.17 1007.37 1007.41 1007.99 1008.28 1008.71 1009.52 1010.11 1010.61 1011.45 1011.90 1012.27 1012.41 1012.60 1013.04 1013.09 1013.42 1013.81 1014.33 1014.55 1014.84 1015.03 1015.17 1015.53 1015.70 1015.87
1006.97 1006.65 1006.50 1006.78 1006.10 1006.13 1006.78 1006.75 1007.09 1007.27 1007.48 1007.84 1008.54 1009.08 1009.75 1010.54 1011.18 1011.70 1011.90 1012.25 1012.63 1013.08 1013.32 1013.74 1014.04 1014.26 1014.57 1014.74 1014.94 1015.10 1015.40 1015.67
1007.14 1006.78 1006.40 1006.18 1006.37 1006.02 1005.89 1006.52 1006.61 1006.70 1006.59 1006.97 1007.57 1008.34 1008.82 1009.63 1010.40 1010.99 1011.52 1012.21 1012.42 1012.73 1013.09 1013.27 1013.66 1014.12 1014.30 1014.47 1014.72 1014.92 1015.14 1015.28
1008.19 1007.02 1006.61 1006.03 1005.88 1005.82 1005.63 1005.53 1005.88 1005.87 1006.19 1006.45 1006.61 1007.33 1008.01 1008.87 1009.68 1010.24 1010.85 1011.70 1012.14 1012.43 1012.77 1013.04 1013.31 1013.87 1014.17 1014.31 1014.41 1014.75 1014.87 1015.22
1010.25 1008.90 1007.89 1006.09 1005.75 1005.43 1005.48 1005.52 1005.17 1005.75 1005.53 1005.89 1006.30 1006.94 1007.64 1008.39 1008.94 1009.33 1010.05 1010.81 1011.53 1011.86 1012.41 1012.97 1013.30 1013.47 1014.15 1014.52 1014.69 1014.77 1014.98 1015.01
1010.87 1009.91 1008.73 1006.06 1005.06 1004.89 1004.69 1004.86 1004.66 1004.69 1005.27 1005.45 1005.77 1006.18 1006.99 1007.78 1008.15 1008.58 1009.31 1010.01 1010.89 1011.52 1011.91 1012.74 1013.04 1013.20 1013.90 1014.44 1014.89 1015.08 1014.98 1014.82
1011.77 1010.78 1009.16 1005.94 1004.30 1004.19 1004.42 1004.07 1004.34 1004.39 1004.62 1004.41 1004.90 1005.53 1006.13 1006.85 1007.72 1008.07 1008.74 1009.18 1010.04 1010.97 1011.50 1011.96 1012.67 1013.12 1013.34 1013.87 1014.47 1014.56 1014.29 1014.13
1013.16 1011.21 1009.20 1006.87 1003.78 1003.73 1003.81 1003.86 1003.77 1003.24 1003.41 1003.29 1003.58 1004.47 1005.17 1006.10 1006.95 1007.60 1008.15 1008.69 1009.31 1009.85 1010.62 1011.27 1011.93 1012.72 1013.23 1013.23 1013.47 1013.99 1014.23 1014.12
1013.58 1011.71 1009.45 1007.50 1006.18 1003.38 1003.18 1003.17 1003.02 1002.83 1002.33 1002.55 1002.08 1003.15 1003.80 1004.96 1005.98 1006.75 1007.43 1008.02 1008.52 1008.78 1009.65 1010.53 1011.02 1011.63 1012.31 1012.88 1013.12 1013.50 1013.92 1014.20
1014.02 1012.17 1010.42 1008.64 1007.10 1005.41 1003.76 1002.72 1002.50 1002.32 1001.70 1001.59 1001.24 1002.13 1003.40 1004.12 1005.18 1006.12 1006.88 1007.22 1007.70 1008.00 1008.58 1009.33 1009.83 1010.49 1010.81 1011.43 1011.63 1011.42 1012.25 1013.23
1014.81 1013.06 1011.04 1009.28 1007.96 1006.36 1004.55 1003.24 1002.12 1001.31 1000.90 999.97 1000.42 1001.34 1002.21 1003.05 1003.98 1005.11 1005.83 1006.18 1006.93 1007.43 1007.97 1008.28 1008.69 1009.47 1009.96 1010.14 1010.78 1010.83 1011.48 1012.14
1015.84 1014.04 1011.76 1010.56 1008.93 1007.49 1005.45 1003.66 1002.61 1001.20 999.70 998.31 998.79 999.56 1000.93 1001.87 1002.78 1003.82 1004.46 1005.15 1006.25 1006.88 1007.41 1008.40 1008.66 1009.60 1010.03 1010.21 1010.22 1009.95 1010.71 1011.30
Thickness
5763 5760 5756 5754 5752 5750 5749 5746 5744 5741 5738 5734 5729 5725 5722 5718 5717 5715 5712 5708 5706 5704 5701 5699 5696 5695 5694 5696 5695 5694 5691 5690
5759 5757 5752 5748 5744 5743 5742 5742 5740 5737 5734 5731 5726 5721 5716 5714 5712 5710 5709 5706 5702 5700 5699 5696 5694 5693 5692 5691 5692 5691 5691 5687
5757 5754 5750 5746 5742 5738 5736 5737 5737 5734 5728 5725 5722 5718 5714 5709 5708 5707 5705 5703 5700 5697 5695 5693 5691 5690 5688 5687 5687 5687 5687 5681
5757 5750 5747 5743 5742 5738 5732 5729 5730 5731 5726 5720 5718 5716 5713 5710 5707 5705 5704 5701 5698 5695 5693 5690 5690 5688 5686 5684 5684 5684 5682 5680
5753 5751 5746 5742 5740 5739 5732 5730 5727 5728 5726 5721 5717 5715 5712 5709 5707 5703 5700 5697 5694 5692 5689 5688 5689 5689 5686 5684 5684 5682 5681 5680
5742 5748 5744 5741 5739 5737 5735 5730 5726 5726 5725 5721 5717 5715 5711 5708 5705 5702 5700 5696 5695 5692 5689 5687 5689 5688 5685 5684 5684 5683 5679 5674
5729 5732 5743 5739 5736 5735 5735 5732 5729 5725 5723 5721 5717 5714 5712 5709 5705 5703 5701 5697 5696 5694 5692 5688 5688 5688 5686 5684 5683 5681 5678 5674
5718 5721 5725 5736 5732 5731 5730 5730 5729 5724 5724 5722 5717 5713 5709 5707 5705 5701 5700 5700 5698 5695 5694 5691 5689 5686 5685 5682 5680 5678 5676 5674
5704 5709 5713 5722 5728 5726 5724 5723 5725 5724 5721 5721 5717 5712 5710 5705 5702 5701 5700 5699 5697 5697 5695 5692 5689 5687 5683 5682 5679 5676 5675 5672
5694 5700 5703 5704 5716 5719 5717 5720 5718 5719 5719 5718 5717 5714 5710 5707 5703 5699 5698 5696 5696 5693 5691 5688 5686 5684 5682 5680 5677 5675 5673 5671
5685 5686 5689 5695 5700 5707 5712 5710 5712 5713 5718 5717 5716 5712 5711 5709 5703 5699 5693 5691 5692 5690 5689 5688 5684 5680 5679 5679 5676 5674 5672 5670
5659 5672 5677 5682 5688 5694 5700 5704 5706 5710 5709 5713 5714 5713 5711 5707 5702 5698 5693 5689 5687 5687 5684 5685 5683 5677 5675 5675 5675 5673 5672 5669
5624 5639 5654 5666 5672 5678 5682 5685 5698 5697 5704 5708 5708 5706 5705 5701 5701 5701 5697 5690 5685 5685 5681 5678 5675 5677 5669 5667 5666 5668 5666 5666
5602 5613 5625 5649 5660 5667 5673 5680 5687 5692 5695 5700 5703 5705 5701 5698 5699 5699 5695 5687 5683 5679 5678 5670 5671 5671 5663 5659 5652 5655 5659 5660
5573 5582 5598 5630 5647 5652 5659 5670 5672 5675 5682 5693 5696 5697 5700 5696 5695 5694 5691 5685 5681 5676 5673 5671 5664 5664 5665 5658 5649 5646 5654 5660
5538 5556 5573 5594 5628 5631 5637 5649 5654 5672 5680 5690 5694 5694 5697 5694 5693 5690 5689 5684 5678 5678 5678 5671 5665 5660 5658 5661 5660 5653 5645 5646
5517 5530 5549 5567 5581 5609 5619 5633 5649 5662 5675 5681 5689 5693 5695 5695 5691 5689 5685 5683 5677 5679 5677 5670 5667 5664 5658 5653 5650 5648 5644 5637
5500 5508 5519 5532 5548 5570 5592 5609 5631 5647 5662 5672 5679 5684 5685 5689 5686 5682 5679 5677 5677 5680 5676 5673 5672 5669 5666 5660 5656 5654 5650 5636
5476 5483 5491 5503 5514 5538 5562 5585 5614 5638 5655 5670 5674 5676 5679 5684 5685 5680 5677 5678 5675 5674 5673 5673 5674 5670 5665 5663 5657 5657 5651 5642
5453 5459 5467 5469 5478 5499 5533 5559 5584 5621 5628 5659 5675 5678 5679 5683 5684 5681 5679 5676 5670 5667 5666 5658 5663 5658 5656 5653 5653 5658 5651 5643